Year,Month,Day,Hour,Minute,Value (Times are PST for temperature in C)
2012,06,21,00,00,14.80
2012,06,21,00,01,14.80
2012,06,21,00,02,14.80
2012,06,21,00,03,14.80
2012,06,21,00,04,14.80
2012,06,21,00,05,14.80
2012,06,21,00,06,14.80
2012,06,21,00,07,14.80
2012,06,21,00,08,14.80
2012,06,21,00,09,14.80
2012,06,21,00,10,14.80
2012,06,21,00,11,14.80
2012,06,21,00,12,14.80
2012,06,21,00,18,14.70
2012,06,21,00,19,14.70
2012,06,21,00,20,14.70
2012,06,21,00,21,14.70
2012,06,21,00,22,14.70
2012,06,21,00,23,14.70
2012,06,21,00,24,14.70
2012,06,21,00,25,14.70
2012,06,21,00,26,14.70
2012,06,21,00,27,14.70
2012,06,21,00,28,14.70
2012,06,21,00,29,14.70
2012,06,21,00,30,14.70
2012,06,21,00,31,14.70
2012,06,21,00,32,14.70
2012,06,21,00,33,14.70
2012,06,21,00,34,14.70
2012,06,21,00,35,14.70
2012,06,21,00,36,14.70
2012,06,21,00,37,14.70
2012,06,21,00,38,14.70
2012,06,21,00,39,14.60
2012,06,21,00,40,14.60
2012,06,21,00,41,14.60
2012,06,21,00,42,14.60
2012,06,21,00,43,14.60
2012,06,21,00,44,14.60
2012,06,21,00,45,14.60
2012,06,21,00,46,14.60
2012,06,21,00,47,14.60
2012,06,21,00,48,14.60
2012,06,21,00,49,14.60
2012,06,21,00,50,14.60
2012,06,21,00,51,14.60
2012,06,21,00,52,14.60
2012,06,21,00,53,14.60
2012,06,21,00,54,14.60
2012,06,21,00,55,14.60
2012,06,21,00,56,14.60
2012,06,21,00,57,14.60
2012,06,21,00,58,14.60
2012,06,21,00,59,14.60
2012,06,21,01,00,14.60
2012,06,21,01,01,14.60
2012,06,21,01,02,14.60
2012,06,21,01,03,14.60
2012,06,21,01,04,14.60
2012,06,21,01,05,14.60
2012,06,21,01,06,14.60
2012,06,21,01,07,14.60
2012,06,21,01,08,14.60
2012,06,21,01,09,14.60
2012,06,21,01,10,14.60
2012,06,21,01,11,14.60
2012,06,21,01,12,14.60
2012,06,21,01,13,14.50
2012,06,21,01,14,14.50
2012,06,21,01,15,14.50
2012,06,21,01,16,14.50
2012,06,21,01,17,14.50
2012,06,21,01,18,14.50
2012,06,21,01,19,14.50
2012,06,21,01,20,14.50
2012,06,21,01,21,14.50
2012,06,21,01,22,14.50
2012,06,21,01,23,14.40
2012,06,21,01,24,14.40
2012,06,21,01,25,14.40
2012,06,21,01,26,14.40
2012,06,21,01,27,14.40
2012,06,21,01,28,14.40
2012,06,21,01,29,14.40
2012,06,21,01,30,14.40
2012,06,21,01,31,14.40
2012,06,21,01,32,14.40
2012,06,21,01,33,14.40
2012,06,21,01,34,14.40
2012,06,21,01,35,14.40
2012,06,21,01,36,14.40
2012,06,21,01,37,14.40
2012,06,21,01,38,14.40
2012,06,21,01,39,14.40
2012,06,21,01,40,14.40
2012,06,21,01,41,14.40
2012,06,21,01,42,14.40
2012,06,21,01,43,14.40
2012,06,21,01,44,14.40
2012,06,21,01,45,14.40
2012,06,21,01,46,14.40
2012,06,21,01,47,14.40
2012,06,21,01,48,14.40
2012,06,21,01,49,14.40
2012,06,21,01,50,14.40
2012,06,21,01,51,14.30
2012,06,21,01,52,14.30
2012,06,21,01,53,14.30
2012,06,21,01,54,14.30
2012,06,21,01,55,14.30
2012,06,21,01,56,14.30
2012,06,21,01,57,14.30
2012,06,21,01,58,14.30
2012,06,21,01,59,14.30
2012,06,21,02,00,14.30
2012,06,21,02,01,14.30
2012,06,21,02,02,14.30
2012,06,21,02,03,14.30
2012,06,21,02,04,14.30
2012,06,21,02,05,14.30
2012,06,21,02,06,14.30
2012,06,21,02,07,14.30
2012,06,21,02,08,14.30
2012,06,21,02,09,14.30
2012,06,21,02,10,14.30
2012,06,21,02,11,14.30
2012,06,21,02,12,14.30
2012,06,21,02,13,14.30
2012,06,21,02,14,14.30
2012,06,21,02,15,14.30
2012,06,21,02,16,14.20
2012,06,21,02,17,14.20
2012,06,21,02,18,14.20
2012,06,21,02,19,14.20
2012,06,21,02,20,14.20
2012,06,21,02,21,14.20
2012,06,21,02,22,14.20
2012,06,21,02,23,14.20
2012,06,21,02,24,14.20
2012,06,21,02,25,14.20
2012,06,21,02,26,14.20
2012,06,21,02,27,14.20
2012,06,21,02,28,14.20
2012,06,21,02,29,14.20
2012,06,21,02,30,14.20
2012,06,21,02,31,14.20
2012,06,21,02,32,14.20
2012,06,21,02,33,14.20
2012,06,21,02,34,14.20
2012,06,21,02,35,14.10
2012,06,21,02,36,14.10
2012,06,21,02,37,14.10
2012,06,21,02,38,14.10
2012,06,21,02,39,14.10
2012,06,21,02,40,14.10
2012,06,21,02,41,14.10
2012,06,21,02,42,14.10
2012,06,21,02,43,14.10
2012,06,21,02,44,14.10
2012,06,21,02,45,14.10
2012,06,21,02,46,14.10
2012,06,21,02,47,14.10
2012,06,21,02,48,14.00
2012,06,21,02,49,14.00
2012,06,21,02,50,14.00
2012,06,21,02,51,14.00
2012,06,21,02,52,13.90
2012,06,21,02,53,13.90
2012,06,21,02,54,13.90
2012,06,21,02,55,13.90
2012,06,21,02,56,13.90
2012,06,21,02,57,13.90
2012,06,21,02,58,13.90
2012,06,21,02,59,13.90
2012,06,21,03,00,13.90
2012,06,21,03,01,13.90
2012,06,21,03,02,13.90
2012,06,21,03,03,13.90
2012,06,21,03,04,13.90
2012,06,21,03,05,13.90
2012,06,21,03,06,13.80
2012,06,21,03,07,13.80
2012,06,21,03,08,13.80
2012,06,21,03,09,13.80
2012,06,21,03,10,13.80
2012,06,21,03,11,13.80
2012,06,21,03,12,13.80
2012,06,21,03,13,13.80
2012,06,21,03,14,13.80
2012,06,21,03,15,13.80
2012,06,21,03,16,13.80
2012,06,21,03,17,13.80
2012,06,21,03,18,13.80
2012,06,21,03,19,13.80
2012,06,21,03,20,13.80
2012,06,21,03,21,13.80
2012,06,21,03,22,13.80
2012,06,21,03,23,13.80
2012,06,21,03,24,13.80
2012,06,21,03,25,13.80
2012,06,21,03,26,13.80
2012,06,21,03,27,13.70
2012,06,21,03,28,13.70
2012,06,21,03,29,13.70
2012,06,21,03,30,13.70
2012,06,21,03,31,13.70
2012,06,21,03,32,13.70
2012,06,21,03,33,13.70
2012,06,21,03,34,13.80
2012,06,21,03,35,13.80
2012,06,21,03,36,13.80
2012,06,21,03,37,13.80
2012,06,21,03,38,13.70
2012,06,21,03,39,13.70
2012,06,21,03,40,13.70
2012,06,21,03,41,13.70
2012,06,21,03,42,13.70
2012,06,21,03,43,13.70
2012,06,21,03,44,13.70
2012,06,21,03,45,13.70
2012,06,21,03,46,13.70
2012,06,21,03,47,13.70
2012,06,21,03,48,13.70
2012,06,21,03,49,13.70
2012,06,21,03,50,13.70
2012,06,21,03,51,13.70
2012,06,21,03,52,13.70
2012,06,21,03,53,13.70
2012,06,21,03,54,13.70
2012,06,21,03,55,13.60
2012,06,21,03,56,13.60
2012,06,21,03,57,13.60
2012,06,21,03,58,13.60
2012,06,21,03,59,13.60
2012,06,21,04,00,13.60
2012,06,21,04,01,13.60
2012,06,21,04,02,13.60
2012,06,21,04,03,13.60
2012,06,21,04,04,13.60
2012,06,21,04,05,13.50
2012,06,21,04,06,13.50
2012,06,21,04,07,13.50
2012,06,21,04,08,13.50
2012,06,21,04,09,13.50
2012,06,21,04,10,13.50
2012,06,21,04,11,13.50
2012,06,21,04,12,13.40
2012,06,21,04,13,13.40
2012,06,21,04,14,13.40
2012,06,21,04,15,13.40
2012,06,21,04,16,13.40
2012,06,21,04,17,13.40
2012,06,21,04,18,13.40
2012,06,21,04,19,13.40
2012,06,21,04,20,13.30
2012,06,21,04,21,13.30
2012,06,21,04,22,13.30
2012,06,21,04,23,13.30
2012,06,21,04,24,13.30
2012,06,21,04,25,13.30
2012,06,21,04,26,13.30
2012,06,21,04,27,13.20
2012,06,21,04,28,13.20
2012,06,21,04,29,13.20
2012,06,21,04,30,13.20
2012,06,21,04,31,13.20
2012,06,21,04,32,13.10
2012,06,21,04,33,13.10
2012,06,21,04,34,13.10
2012,06,21,04,35,13.10
2012,06,21,04,36,13.10
2012,06,21,04,37,13.00
2012,06,21,04,38,13.00
2012,06,21,04,39,13.00
2012,06,21,04,40,13.00
2012,06,21,04,41,12.90
2012,06,21,04,42,12.90
2012,06,21,04,43,12.90
2012,06,21,04,44,12.80
2012,06,21,04,45,12.80
2012,06,21,04,46,12.80
2012,06,21,04,47,12.80
2012,06,21,04,48,12.70
2012,06,21,04,49,12.70
2012,06,21,04,50,12.70
2012,06,21,04,51,12.60
2012,06,21,04,52,12.60
2012,06,21,04,53,12.60
2012,06,21,04,54,12.60
2012,06,21,04,55,12.50
2012,06,21,04,56,12.50
2012,06,21,04,57,12.40
2012,06,21,04,58,12.40
2012,06,21,04,59,12.40
2012,06,21,05,00,12.30
2012,06,21,05,01,12.30
2012,06,21,05,02,12.30
2012,06,21,05,03,12.30
2012,06,21,05,04,12.20
2012,06,21,05,05,12.20
2012,06,21,05,06,12.20
2012,06,21,05,07,12.20
2012,06,21,05,08,12.10
2012,06,21,05,09,12.10
2012,06,21,05,10,12.10
2012,06,21,05,11,12.10
2012,06,21,05,12,12.00
2012,06,21,05,13,12.00
2012,06,21,05,14,11.90
2012,06,21,05,15,11.90
2012,06,21,05,16,11.90
2012,06,21,05,17,11.90
2012,06,21,05,18,11.90
2012,06,21,05,19,11.80
2012,06,21,05,20,11.80
2012,06,21,05,21,11.80
2012,06,21,05,22,11.80
2012,06,21,05,23,11.80
2012,06,21,05,24,11.80
2012,06,21,05,25,11.80
2012,06,21,05,26,11.70
2012,06,21,05,27,11.70
2012,06,21,05,28,11.70
2012,06,21,05,29,11.70
2012,06,21,05,30,11.70
2012,06,21,05,31,11.70
2012,06,21,05,32,11.70
2012,06,21,05,33,11.60
2012,06,21,05,34,11.60
2012,06,21,05,35,11.60
2012,06,21,05,36,11.60
2012,06,21,05,37,11.50
2012,06,21,05,38,11.50
2012,06,21,05,39,11.50
2012,06,21,05,40,11.50
2012,06,21,05,41,11.50
2012,06,21,05,42,11.50
2012,06,21,05,43,11.50
2012,06,21,05,44,11.50
2012,06,21,05,45,11.50
2012,06,21,05,46,11.50
2012,06,21,05,47,11.50
2012,06,21,05,48,11.50
2012,06,21,05,49,11.40
2012,06,21,05,50,11.50
2012,06,21,05,51,11.40
2012,06,21,05,52,11.40
2012,06,21,05,53,11.40
2012,06,21,05,54,11.40
2012,06,21,05,55,11.40
2012,06,21,05,56,11.40
2012,06,21,05,57,11.40
2012,06,21,05,58,11.40
2012,06,21,05,59,11.40
2012,06,21,06,00,11.40
2012,06,21,06,01,11.40
2012,06,21,06,02,11.40
2012,06,21,06,03,11.40
2012,06,21,06,04,11.40
2012,06,21,06,05,11.40
2012,06,21,06,06,11.40
2012,06,21,06,07,11.40
2012,06,21,06,08,11.40
2012,06,21,06,09,11.40
2012,06,21,06,10,11.40
2012,06,21,06,11,11.40
2012,06,21,06,12,11.40
2012,06,21,06,13,11.40
2012,06,21,06,14,11.40
2012,06,21,06,15,11.40
2012,06,21,06,16,11.40
2012,06,21,06,17,11.40
2012,06,21,06,18,11.40
2012,06,21,06,19,11.40
2012,06,21,06,20,11.40
2012,06,21,06,21,11.40
2012,06,21,06,22,11.50
2012,06,21,06,23,11.50
2012,06,21,06,24,11.50
2012,06,21,06,25,11.50
2012,06,21,06,26,11.50
2012,06,21,06,27,11.50
2012,06,21,06,28,11.50
2012,06,21,06,29,11.50
2012,06,21,06,30,11.50
2012,06,21,06,31,11.50
2012,06,21,06,32,11.50
2012,06,21,06,33,11.60
2012,06,21,06,34,11.60
2012,06,21,06,35,11.60
2012,06,21,06,36,11.60
2012,06,21,06,37,11.60
2012,06,21,06,38,11.70
2012,06,21,06,39,11.70
2012,06,21,06,40,11.70
2012,06,21,06,41,11.70
2012,06,21,06,42,11.70
2012,06,21,06,43,11.80
2012,06,21,06,44,11.80
2012,06,21,06,45,11.80
2012,06,21,06,46,11.90
2012,06,21,06,47,11.90
2012,06,21,06,48,12.00
2012,06,21,06,49,12.00
2012,06,21,06,50,12.10
2012,06,21,06,51,12.10
2012,06,21,06,52,12.20
2012,06,21,06,53,12.20
2012,06,21,06,54,12.20
2012,06,21,06,55,12.20
2012,06,21,06,56,12.30
2012,06,21,06,57,12.30
2012,06,21,06,58,12.30
2012,06,21,06,59,12.40
2012,06,21,07,00,12.40
2012,06,21,07,01,12.50
2012,06,21,07,02,12.50
2012,06,21,07,03,12.60
2012,06,21,07,04,12.60
2012,06,21,07,05,12.70
2012,06,21,07,06,12.70
2012,06,21,07,07,12.80
2012,06,21,07,08,12.80
2012,06,21,07,09,12.90
2012,06,21,07,10,12.90
2012,06,21,07,11,13.00
2012,06,21,07,12,13.10
2012,06,21,07,13,13.20
2012,06,21,07,14,13.30
2012,06,21,07,15,13.40
2012,06,21,07,16,13.50
2012,06,21,07,17,13.60
2012,06,21,07,18,13.60
2012,06,21,07,19,13.70
2012,06,21,07,20,13.80
2012,06,21,07,21,13.80
2012,06,21,07,22,13.90
2012,06,21,07,23,13.90
2012,06,21,07,24,13.90
2012,06,21,07,25,14.00
2012,06,21,07,26,14.10
2012,06,21,07,27,14.10
2012,06,21,07,28,14.20
2012,06,21,07,29,14.20
2012,06,21,07,30,14.30
2012,06,21,07,31,14.30
2012,06,21,07,32,14.30
2012,06,21,07,33,14.40
2012,06,21,07,34,14.40
2012,06,21,07,35,14.50
2012,06,21,07,36,14.60
2012,06,21,07,37,14.60
2012,06,21,07,38,14.70
2012,06,21,07,39,14.80
2012,06,21,07,40,14.90
2012,06,21,07,41,15.00
2012,06,21,07,42,15.00
2012,06,21,07,43,15.00
2012,06,21,07,44,15.10
2012,06,21,07,45,15.20
2012,06,21,07,46,15.30
2012,06,21,07,47,15.30
2012,06,21,07,48,15.40
2012,06,21,07,49,15.50
2012,06,21,07,50,15.50
2012,06,21,07,51,15.60
2012,06,21,07,52,15.70
2012,06,21,07,53,15.70
2012,06,21,07,54,15.80
2012,06,21,07,55,15.80
2012,06,21,07,56,15.80
2012,06,21,07,57,15.90
2012,06,21,07,58,15.90
2012,06,21,07,59,16.00
2012,06,21,08,00,16.10
2012,06,21,08,01,16.10
2012,06,21,08,02,16.20
2012,06,21,08,03,16.30
2012,06,21,08,04,16.30
2012,06,21,08,05,16.40
2012,06,21,08,06,16.40
2012,06,21,08,07,16.50
2012,06,21,08,08,16.60
2012,06,21,08,09,16.60
2012,06,21,08,10,16.70
2012,06,21,08,11,16.70
2012,06,21,08,12,16.80
2012,06,21,08,13,16.80
2012,06,21,08,14,16.80
2012,06,21,08,15,16.80
2012,06,21,08,16,16.80
2012,06,21,08,17,16.80
2012,06,21,08,18,16.80
2012,06,21,08,19,16.90
2012,06,21,08,20,16.90
2012,06,21,08,21,16.90
2012,06,21,08,22,17.00
2012,06,21,08,23,17.10
2012,06,21,08,24,17.10
2012,06,21,08,25,17.20
2012,06,21,08,26,17.30
2012,06,21,08,27,17.30
2012,06,21,08,28,17.30
2012,06,21,08,29,17.40
2012,06,21,08,30,17.40
2012,06,21,08,31,17.50
2012,06,21,08,32,17.50
2012,06,21,08,33,17.60
2012,06,21,08,34,17.60
2012,06,21,08,35,17.70
2012,06,21,08,36,17.80
2012,06,21,08,37,17.90
2012,06,21,08,38,18.00
2012,06,21,08,39,18.10
2012,06,21,08,40,18.10
2012,06,21,08,41,18.20
2012,06,21,08,42,18.20
2012,06,21,08,43,18.30
2012,06,21,08,44,18.30
2012,06,21,08,45,18.30
2012,06,21,08,46,18.30
2012,06,21,08,47,18.40
2012,06,21,08,48,18.40
2012,06,21,08,49,18.40
2012,06,21,08,50,18.40
2012,06,21,08,51,18.40
2012,06,21,08,52,18.40
2012,06,21,08,53,18.40
2012,06,21,08,54,18.40
2012,06,21,08,55,18.40
2012,06,21,08,56,18.40
2012,06,21,08,57,18.40
2012,06,21,08,58,18.50
2012,06,21,08,59,18.50
2012,06,21,09,00,18.60
2012,06,21,09,01,18.60
2012,06,21,09,02,18.60
2012,06,21,09,03,18.60
2012,06,21,09,04,18.60
2012,06,21,09,05,18.60
2012,06,21,09,06,18.60
2012,06,21,09,07,18.70
2012,06,21,09,08,18.70
2012,06,21,09,09,18.70
2012,06,21,09,10,18.80
2012,06,21,09,11,18.80
2012,06,21,09,12,18.90
2012,06,21,09,13,18.90
2012,06,21,09,14,18.90
2012,06,21,09,15,18.90
2012,06,21,09,16,18.90
2012,06,21,09,17,18.90
2012,06,21,09,18,18.90
2012,06,21,09,19,18.90
2012,06,21,09,20,18.90
2012,06,21,09,21,18.90
2012,06,21,09,22,18.90
2012,06,21,09,23,18.90
2012,06,21,09,24,19.00
2012,06,21,09,25,19.00
2012,06,21,09,26,18.90
2012,06,21,09,27,18.80
2012,06,21,09,28,18.70
2012,06,21,09,29,18.60
2012,06,21,09,30,18.60
2012,06,21,09,31,18.60
2012,06,21,09,32,18.60
2012,06,21,09,33,18.60
2012,06,21,09,34,18.60
2012,06,21,09,35,18.60
2012,06,21,09,36,18.70
2012,06,21,09,37,18.80
2012,06,21,09,38,18.90
2012,06,21,09,39,19.00
2012,06,21,09,40,19.00
2012,06,21,09,41,19.10
2012,06,21,09,42,19.10
2012,06,21,09,43,19.10
2012,06,21,09,44,19.20
2012,06,21,09,45,19.20
2012,06,21,09,46,19.30
2012,06,21,09,47,19.30
2012,06,21,09,48,19.30
2012,06,21,09,49,19.20
2012,06,21,09,50,19.10
2012,06,21,09,51,19.00
2012,06,21,09,52,19.00
2012,06,21,09,53,19.00
2012,06,21,09,54,18.90
2012,06,21,09,55,18.90
2012,06,21,09,56,18.90
2012,06,21,09,57,18.90
2012,06,21,09,58,19.00
2012,06,21,09,59,19.00
2012,06,21,10,00,19.00
2012,06,21,10,01,19.00
2012,06,21,10,02,19.00
2012,06,21,10,03,18.80
2012,06,21,10,04,18.70
2012,06,21,10,05,18.60
2012,06,21,10,06,18.50
2012,06,21,10,07,18.50
2012,06,21,10,08,18.40
2012,06,21,10,09,18.40
2012,06,21,10,10,18.40
2012,06,21,10,11,18.50
2012,06,21,10,12,18.50
2012,06,21,10,13,18.60
2012,06,21,10,14,18.70
2012,06,21,10,15,18.80
2012,06,21,10,16,18.90
2012,06,21,10,17,18.90
2012,06,21,10,18,18.90
2012,06,21,10,19,18.90
2012,06,21,10,20,18.90
2012,06,21,10,21,18.90
2012,06,21,10,22,19.00
2012,06,21,10,23,19.00
2012,06,21,10,24,19.10
2012,06,21,10,25,19.10
2012,06,21,10,26,19.20
2012,06,21,10,27,19.30
2012,06,21,10,28,19.30
2012,06,21,10,29,19.40
2012,06,21,10,30,19.40
2012,06,21,10,31,19.40
2012,06,21,10,32,19.40
2012,06,21,10,33,19.20
2012,06,21,10,34,19.10
2012,06,21,10,35,19.10
2012,06,21,10,36,19.00
2012,06,21,10,37,18.90
2012,06,21,10,38,18.80
2012,06,21,10,39,18.80
2012,06,21,10,40,18.90
2012,06,21,10,41,18.90
2012,06,21,10,42,19.00
2012,06,21,10,43,19.10
2012,06,21,10,44,19.20
2012,06,21,10,45,19.20
2012,06,21,10,46,19.30
2012,06,21,10,47,19.40
2012,06,21,10,48,19.40
2012,06,21,10,49,19.50
2012,06,21,10,50,19.60
2012,06,21,10,51,19.70
2012,06,21,10,52,19.80
2012,06,21,10,53,19.80
2012,06,21,10,54,19.70
2012,06,21,10,55,19.40
2012,06,21,10,56,19.30
2012,06,21,10,57,19.10
2012,06,21,10,58,19.00
2012,06,21,10,59,18.90
2012,06,21,11,00,18.80
2012,06,21,11,01,18.80
2012,06,21,11,02,18.80
2012,06,21,11,03,18.90
2012,06,21,11,04,18.80
2012,06,21,11,05,18.80
2012,06,21,11,06,18.80
2012,06,21,11,07,18.90
2012,06,21,11,08,19.00
2012,06,21,11,09,19.20
2012,06,21,11,10,19.40
2012,06,21,11,11,19.60
2012,06,21,11,12,19.70
2012,06,21,11,13,19.70
2012,06,21,11,14,19.70
2012,06,21,11,15,19.70
2012,06,21,11,16,19.70
2012,06,21,11,17,19.80
2012,06,21,11,18,19.80
2012,06,21,11,19,19.80
2012,06,21,11,20,19.80
2012,06,21,11,21,19.70
2012,06,21,11,22,19.70
2012,06,21,11,23,19.80
2012,06,21,11,24,19.90
2012,06,21,11,25,19.90
2012,06,21,11,26,19.80
2012,06,21,11,27,19.60
2012,06,21,11,28,19.40
2012,06,21,11,29,19.40
2012,06,21,11,30,19.30
2012,06,21,11,31,19.30
2012,06,21,11,32,19.20
2012,06,21,11,33,19.20
2012,06,21,11,34,19.20
2012,06,21,11,35,19.20
2012,06,21,11,36,19.10
2012,06,21,11,37,19.10
2012,06,21,11,38,19.10
2012,06,21,11,39,19.20
2012,06,21,11,40,19.20
2012,06,21,11,41,19.20
2012,06,21,11,42,19.10
2012,06,21,11,43,19.10
2012,06,21,11,44,19.20
2012,06,21,11,45,19.30
2012,06,21,11,46,19.50
2012,06,21,11,47,19.70
2012,06,21,11,48,19.70
2012,06,21,11,49,19.70
2012,06,21,11,50,19.60
2012,06,21,11,51,19.60
2012,06,21,11,52,19.60
2012,06,21,11,53,19.50
2012,06,21,11,54,19.40
2012,06,21,11,55,19.30
2012,06,21,11,56,19.20
2012,06,21,11,57,19.20
2012,06,21,11,58,19.20
2012,06,21,11,59,19.20
2012,06,21,12,00,19.30
2012,06,21,12,01,19.30
2012,06,21,12,02,19.50
2012,06,21,12,03,19.60
2012,06,21,12,04,19.70
2012,06,21,12,05,19.70
2012,06,21,12,06,19.80
2012,06,21,12,07,19.90
2012,06,21,12,08,20.00
2012,06,21,12,09,20.10
2012,06,21,12,10,20.10
2012,06,21,12,11,20.10
2012,06,21,12,12,20.20
2012,06,21,12,13,20.20
2012,06,21,12,14,20.20
2012,06,21,12,15,20.20
2012,06,21,12,16,20.10
2012,06,21,12,17,20.10
2012,06,21,12,18,20.20
2012,06,21,12,19,20.20
2012,06,21,12,20,20.20
2012,06,21,12,21,20.20
2012,06,21,12,22,20.30
2012,06,21,12,23,20.30
2012,06,21,12,24,20.30
2012,06,21,12,25,20.20
2012,06,21,12,26,20.00
2012,06,21,12,27,19.90
2012,06,21,12,28,19.80
2012,06,21,12,29,19.60
2012,06,21,12,30,19.50
2012,06,21,12,31,19.40
2012,06,21,12,32,19.30
2012,06,21,12,33,19.20
2012,06,21,12,34,19.00
2012,06,21,12,35,18.90
2012,06,21,12,36,19.00
2012,06,21,12,37,19.00
2012,06,21,12,38,19.10
2012,06,21,12,39,19.10
2012,06,21,12,40,19.10
2012,06,21,12,41,19.10
2012,06,21,12,42,19.10
2012,06,21,12,43,19.10
2012,06,21,12,44,19.00
2012,06,21,12,45,19.00
2012,06,21,12,46,19.00
2012,06,21,12,47,19.10
2012,06,21,12,48,19.10
2012,06,21,12,49,19.20
2012,06,21,12,50,19.20
2012,06,21,12,51,19.20
2012,06,21,12,52,19.10
2012,06,21,12,53,19.10
2012,06,21,12,54,19.10
2012,06,21,12,55,19.10
2012,06,21,12,56,19.20
2012,06,21,12,57,19.20
2012,06,21,12,58,19.20
2012,06,21,12,59,19.20
2012,06,21,13,00,19.30
2012,06,21,13,01,19.30
2012,06,21,13,02,19.30
2012,06,21,13,03,19.40
2012,06,21,13,04,19.40
2012,06,21,13,05,19.50
2012,06,21,13,06,19.60
2012,06,21,13,07,19.60
2012,06,21,13,08,19.60
2012,06,21,13,09,19.70
2012,06,21,13,10,19.70
2012,06,21,13,11,19.70
2012,06,21,13,12,19.80
2012,06,21,13,13,19.70
2012,06,21,13,14,19.70
2012,06,21,13,15,19.60
2012,06,21,13,16,19.50
2012,06,21,13,17,19.50
2012,06,21,13,18,19.40
2012,06,21,13,19,19.40
2012,06,21,13,20,19.40
2012,06,21,13,21,19.30
2012,06,21,13,22,19.30
2012,06,21,13,23,19.40
2012,06,21,13,24,19.50
2012,06,21,13,25,19.50
2012,06,21,13,26,19.60
2012,06,21,13,27,19.70
2012,06,21,13,28,19.80
2012,06,21,13,29,19.80
2012,06,21,13,30,19.80
2012,06,21,13,31,19.80
2012,06,21,13,32,19.80
2012,06,21,13,33,19.80
2012,06,21,13,34,19.80
2012,06,21,13,35,19.80
2012,06,21,13,36,19.80
2012,06,21,13,37,19.80
2012,06,21,13,38,19.90
2012,06,21,13,39,20.00
2012,06,21,13,40,20.10
2012,06,21,13,41,20.10
2012,06,21,13,42,20.10
2012,06,21,13,43,20.10
2012,06,21,13,44,20.20
2012,06,21,13,45,20.20
2012,06,21,13,46,20.10
2012,06,21,13,47,20.10
2012,06,21,13,48,20.10
2012,06,21,13,49,20.00
2012,06,21,13,50,20.10
2012,06,21,13,51,20.10
2012,06,21,13,52,20.20
2012,06,21,13,53,20.20
2012,06,21,13,54,20.30
2012,06,21,13,55,20.40
2012,06,21,13,56,20.40
2012,06,21,13,57,20.30
2012,06,21,13,58,20.30
2012,06,21,13,59,20.30
2012,06,21,14,00,20.20
2012,06,21,14,01,20.20
2012,06,21,14,02,20.20
2012,06,21,14,03,20.20
2012,06,21,14,04,20.20
2012,06,21,14,05,20.10
2012,06,21,14,06,20.10
2012,06,21,14,07,20.10
2012,06,21,14,08,20.00
2012,06,21,14,09,20.00
2012,06,21,14,10,20.00
2012,06,21,14,11,20.10
2012,06,21,14,12,20.20
2012,06,21,14,13,20.30
2012,06,21,14,14,20.40
2012,06,21,14,15,20.50
2012,06,21,14,16,20.50
2012,06,21,14,17,20.50
2012,06,21,14,18,20.50
2012,06,21,14,19,20.60
2012,06,21,14,20,20.60
2012,06,21,14,21,20.70
2012,06,21,14,22,20.60
2012,06,21,14,23,20.50
2012,06,21,14,24,20.40
2012,06,21,14,25,20.40
2012,06,21,14,26,20.40
2012,06,21,14,27,20.50
2012,06,21,14,28,20.50
2012,06,21,14,29,20.50
2012,06,21,14,30,20.40
2012,06,21,14,31,20.40
2012,06,21,14,32,20.40
2012,06,21,14,33,20.40
2012,06,21,14,34,20.50
2012,06,21,14,35,20.50
2012,06,21,14,36,20.40
2012,06,21,14,37,20.40
2012,06,21,14,38,20.30
2012,06,21,14,39,20.40
2012,06,21,14,40,20.40
2012,06,21,14,41,20.50
2012,06,21,14,42,20.60
2012,06,21,14,43,20.60
2012,06,21,14,44,20.60
2012,06,21,14,45,20.60
2012,06,21,14,46,20.50
2012,06,21,14,47,20.50
2012,06,21,14,48,20.50
2012,06,21,14,49,20.60
2012,06,21,14,50,20.70
2012,06,21,14,51,20.80
2012,06,21,14,52,20.80
2012,06,21,14,53,20.80
2012,06,21,14,54,20.80
2012,06,21,14,55,20.90
2012,06,21,14,56,20.90
2012,06,21,14,57,20.90
2012,06,21,14,58,20.90
2012,06,21,14,59,21.00
2012,06,21,15,00,21.00
2012,06,21,15,01,21.10
2012,06,21,15,02,21.20
2012,06,21,15,03,21.30
2012,06,21,15,04,21.30
2012,06,21,15,05,21.40
2012,06,21,15,06,21.50
2012,06,21,15,07,21.60
2012,06,21,15,08,21.70
2012,06,21,15,09,21.60
2012,06,21,15,10,21.60
2012,06,21,15,11,21.70
2012,06,21,15,12,21.80
2012,06,21,15,13,21.80
2012,06,21,15,14,21.80
2012,06,21,15,15,21.90
2012,06,21,15,16,21.90
2012,06,21,15,17,21.90
2012,06,21,15,18,22.00
2012,06,21,15,19,21.90
2012,06,21,15,20,21.90
2012,06,21,15,21,21.90
2012,06,21,15,22,21.90
2012,06,21,15,23,21.90
2012,06,21,15,24,21.80
2012,06,21,15,25,21.70
2012,06,21,15,26,21.50
2012,06,21,15,27,21.40
2012,06,21,15,28,21.30
2012,06,21,15,29,21.20
2012,06,21,15,30,21.20
2012,06,21,15,31,21.20
2012,06,21,15,32,21.10
2012,06,21,15,33,21.00
2012,06,21,15,34,20.90
2012,06,21,15,35,20.90
2012,06,21,15,36,20.90
2012,06,21,15,37,20.80
2012,06,21,15,38,20.90
2012,06,21,15,39,21.00
2012,06,21,15,40,21.00
2012,06,21,15,41,21.10
2012,06,21,15,42,21.20
2012,06,21,15,43,21.30
2012,06,21,15,44,21.30
2012,06,21,15,45,21.40
2012,06,21,15,46,21.30
2012,06,21,15,47,21.30
2012,06,21,15,48,21.20
2012,06,21,15,49,21.00
2012,06,21,15,50,20.80
2012,06,21,15,51,20.70
2012,06,21,15,52,20.70
2012,06,21,15,53,20.70
2012,06,21,15,54,20.70
2012,06,21,15,55,20.70
2012,06,21,15,56,20.70
2012,06,21,15,57,20.70
2012,06,21,15,58,20.80
2012,06,21,15,59,20.80
2012,06,21,16,00,20.90
2012,06,21,16,01,21.00
2012,06,21,16,02,21.10
2012,06,21,16,03,21.00
2012,06,21,16,04,21.00
2012,06,21,16,05,21.00
2012,06,21,16,06,20.90
2012,06,21,16,07,20.80
2012,06,21,16,08,20.80
2012,06,21,16,09,20.70
2012,06,21,16,10,20.60
2012,06,21,16,11,20.60
2012,06,21,16,12,20.60
2012,06,21,16,13,20.60
2012,06,21,16,14,20.60
2012,06,21,16,15,20.60
2012,06,21,16,16,20.70
2012,06,21,16,17,20.70
2012,06,21,16,18,20.80
2012,06,21,16,19,20.80
2012,06,21,16,20,20.80
2012,06,21,16,21,20.80
2012,06,21,16,22,20.80
2012,06,21,16,23,20.80
2012,06,21,16,24,20.80
2012,06,21,16,25,20.80
2012,06,21,16,26,20.80
2012,06,21,16,27,20.90
2012,06,21,16,28,20.90
2012,06,21,16,29,20.90
2012,06,21,16,30,20.90
2012,06,21,16,31,20.80
2012,06,21,16,32,20.80
2012,06,21,16,33,20.80
2012,06,21,16,34,20.80
2012,06,21,16,35,20.70
2012,06,21,16,36,20.70
2012,06,21,16,37,20.60
2012,06,21,16,38,20.60
2012,06,21,16,39,20.60
2012,06,21,16,40,20.50
2012,06,21,16,41,20.50
2012,06,21,16,42,20.50
2012,06,21,16,43,20.60
2012,06,21,16,44,20.60
2012,06,21,16,45,20.60
2012,06,21,16,46,20.70
2012,06,21,16,47,20.70
2012,06,21,16,48,20.70
2012,06,21,16,49,20.80
2012,06,21,16,50,20.80
2012,06,21,16,51,20.80
2012,06,21,16,52,20.80
2012,06,21,16,53,20.80
2012,06,21,16,54,20.80
2012,06,21,16,55,20.80
2012,06,21,16,56,20.80
2012,06,21,16,57,20.80
2012,06,21,16,58,20.80
2012,06,21,16,59,20.80
2012,06,21,17,00,20.80
2012,06,21,17,01,20.90
2012,06,21,17,02,20.90
2012,06,21,17,03,20.90
2012,06,21,17,04,20.90
2012,06,21,17,05,20.90
2012,06,21,17,06,20.90
2012,06,21,17,07,20.90
2012,06,21,17,08,20.90
2012,06,21,17,09,20.80
2012,06,21,17,10,20.80
2012,06,21,17,11,20.80
2012,06,21,17,12,20.80
2012,06,21,17,13,20.80
2012,06,21,17,14,20.80
2012,06,21,17,15,20.80
2012,06,21,17,16,20.90
2012,06,21,17,17,20.90
2012,06,21,17,18,20.90
2012,06,21,17,19,20.90
2012,06,21,17,20,20.90
2012,06,21,17,21,20.90
2012,06,21,17,22,20.80
2012,06,21,17,23,20.80
2012,06,21,17,24,20.80